TITAN 3C TRANSTAGE R/B, 3432

Orbit data source: Space-Track

TITAN 3C TRANSTAGE R/B, 3432 is space debris in GEO originally from a launch on Thu, 26 Sep 1968 UTC launched from the Air Force Eastern Test Range (AFETR). Debris objects in space refer to the collection of defunct objects orbiting the Earth. Examples of debris include non-operational satellites, rocket bodies, and fragments generated from explosions, collisions, or faulty payload assembly.

Not visible in the next 10 days
Identifier
3432, 1968-081E
Orbit
GEO
Country
Flag of USUS
Related business
Manufacturer
Martin Marietta
Mission
Spacecraft
Bus & Motor
TRANSTAGE, Unknown motor
Mass
~1,950 kg wet, ~1,950 kg dry
Launch date (UTC)
1968-09-26 (58 years ago)
Launch vehicle
Unknown
Launch site
Air Force Eastern Test Range (AFETR)
Object type
Payload
Rocket body
Debris
Shape & HBR
Unknown
Radar Cross Section
Large (>1 m²)

Expand to show TLE details & history
Last TLE update: 6 hours ago

TLE from 6 hours ago
0 TITAN 3C TRANSTAGE R/B
1  3432U 68081E   26132.84474323 -.00000206  00000-0  00000+0 0  9992
2  3432   1.8921  49.6978 0094055 277.5444 324.5732  1.01518450121627
Epoch: 2026-05-12T20:16Z
TLE epoch observation values (Epoch: 2026-05-12T20:16:25.815Z)
Latitude
-1.65795°
Longitude
116.43966°
Altitude
35,123.015 km
Speed
3.111 km/s
True Right ascension
19h 24m 38s
True Declination
-1° 39' 22"
Sunlit
Object was in daylight at epoch
Visualization orbit readout
Latitude
Unknown
Longitude
Unknown
Altitude
Unknown
Speed
Unknown
Apparent Right ascension
Unknown
Apparent Declination
Unknown
Sunlit
N/A
Visualization observer readout
Local Sidereal Time
10:40:01
Azimuth
Unknown
Elevation
Unknown
Doppler factor
Unknown
Orbital elements
Apogee altitude
35,835.105 km
Perigee altitude
35,048.431 km
Semi-major axis
41,819.905 km
Eccentricity
0.00941
Inclination
1.8921°
RAAN
49.6978°
Arg. of periapsis
277.5444°
True anomaly
323.94242°
Mean anomaly
324.5732°
Eccentric anomaly
324.25841°
Mean motion
0.25379 °/min
Orbital period
1,418.51 mins
BSTAR
0
Loading maneuver chart data...
Computing Atmospheric mass density...

Documentation

Showing up to 5 results
|